This is the latest recevied weather packets stored in our database for station/object SV1RVP-13. If no packets are shown the sender has not sent any weather packets the latest 10 day(s).
| Time | Temp. | Humidity | Pressure | Rain* | Wind** | Luminosity | Snow |
|---|---|---|---|---|---|---|---|
| 1777987706 | 23.89° C | 38% | 1015.1 hPa | 0 mm | - | - | - |
| 1777987127 | 23.89° C | 37% | 1015.2 hPa | 0 mm | - | - | - |
| 1777986514 | 23.89° C | 37% | 1015.2 hPa | 0 mm | - | - | - |
| 1777985914 | 24.44° C | 36% | 1015.3 hPa | 0 mm | - | - | - |
| 1777985320 | 24.44° C | 36% | 1015.5 hPa | 0 mm | - | - | - |
| 1777984708 | 24.44° C | 36% | 1015.5 hPa | 0 mm | - | - | - |
| 1777984115 | 24.44° C | 35% | 1015.6 hPa | 0 mm | - | - | - |
| 1777983516 | 24.44° C | 36% | 1015.7 hPa | 0 mm | - | - | - |
| 1777982906 | 24.44° C | 35% | 1015.7 hPa | 0 mm | - | - | - |
| 1777982322 | 24.44° C | 35% | 1015.7 hPa | 0 mm | - | - | - |
| 1777981724 | 24.44° C | 35% | 1015.9 hPa | 0 mm | - | - | - |
| 1777981119 | 24.44° C | 37% | 1016 hPa | 0 mm | - | - | - |
| 1777980518 | 24.44° C | 37% | 1015.9 hPa | 0 mm | - | - | - |
| 1777979918 | 24.44° C | 37% | 1016 hPa | 0 mm | - | - | - |
| 1777979314 | 24.44° C | 40% | 1016 hPa | 0 mm | - | - | - |
| 1777978709 | 23.89° C | 43% | 1016 hPa | 0 mm | - | - | - |
| 1777978111 | 23.89° C | 47% | 1016.1 hPa | 0 mm | - | - | - |
| 1777977505 | 23.89° C | 47% | 1016.1 hPa | 0 mm | - | - | - |
| 1777976923 | 23.89° C | 45% | 1016.1 hPa | 0 mm | - | - | - |
| 1777976329 | 23.33° C | 46% | 1016.1 hPa | 0 mm | - | - | - |
| 1777975720 | 23.33° C | 45% | 1016.1 hPa | 0 mm | - | - | - |
| 1777975117 | 23.33° C | 47% | 1016.1 hPa | 0 mm | - | - | - |
| 1777974519 | 23.33° C | 52% | 1016.2 hPa | 0 mm | - | - | - |
| 1777973909 | 22.78° C | 53% | 1016.2 hPa | 0 mm | - | - | - |
| 1777973306 | 22.22° C | 53% | 1016.4 hPa | 0 mm | - | - | - |
* Rain since midnight (hover to see other rain measurements)
** Current wind speed in m/s (hover to see current wind gust speed)